Location: Trout Lake
(45.9980°N, 121.5270°W)
Time: 10:12:56
(UTC-08:00)

Daily predictions for brighter satellites

Satellite Brightness Start Highest point End
(mag) Time Altitude Azimuth Time Altitude Azimuth Time Altitude Azimuth
USA 267 4.0 17:57:32 10° ENE 18:03:26 37° NNE 18:09:19 10° NW
Cosmos 2221 Rocket 3.7 18:00:46 10° N 18:05:13 87° WSW 18:09:37 10° S
Cosmos 2219 3.2 18:00:10 10° SSW 18:05:47 86° ESE 18:11:28 10° NNE
CENTAUR R/B 3.9 18:02:20 10° SE 18:05:52 16° ESE 18:09:39 10° ENE
Cosmos 2237 Rocket 2.2 18:01:33 10° NNW 18:07:09 63° ENE 18:12:43 10° SE
NOAA 12 4.1 18:03:13 10° SSE 18:08:26 63° ENE 18:13:43 10° N
Cosmos 2227 Rocket 2.7 18:03:35 10° S 18:08:45 38° ESE 18:13:56 10° NE
SL-16 R/B 3.0 18:04:18 10° N 18:09:21 31° NE 18:14:20 10° ESE
H-2A R/B 3.5 18:07:07 10° SE 18:10:40 33° ENE 18:14:11 10° N
MOS 1-B Rocket 4.0 18:04:51 10° SSE 18:11:15 74° ENE 18:16:59 10° N
Cosmos 1825 4.3 18:10:26 10° SW 18:13:48 30° WNW 18:17:12 10° N
Iridium 4 Rocket 4.5 18:12:39 10° NNE 18:16:35 22° ENE 18:20:14 10° SE
FENGYUN 3A 3.7 18:13:35 10° SSE 18:18:59 89° ENE 18:24:26 10° NNW
Cosmos 1624 Rocket 4.0 18:13:45 10° NNW 18:19:01 90° W 18:24:14 10° SSE
MONITOR-E 4.1 18:16:53 10° SSE 18:19:53 89° E 18:22:56 10° NNW
COSMO-SKYMED 1 2.5 18:15:51 10° NNE 18:20:13 83° ESE 18:24:34 10° SSW
Cosmos 1680 Rocket 4.3 18:16:39 10° SW 18:21:52 56° WNW 18:27:08 10° NNE
Cosmos 2297 Rocket 2.6 18:17:42 10° S 18:23:00 43° ESE 18:28:20 10° NE
Lacrosse 5 2.3 18:21:54 10° NW 18:26:56 65° SW 18:31:55 10° SE
Cosmos 1812 3.2 18:23:20 10° N 18:26:58 37° ENE 18:30:35 10° SE
Cosmos 2285 Rocket 4.0 18:24:41 10° SSW 18:31:00 77° ESE 18:37:24 10° NNE
NOSS 3-2 (A) 3.4 18:25:25 10° SSW 18:31:19 74° SE 18:37:56 10° NE
ATLAS 3B R/B 3.0 18:24:28 10° SW 18:31:43 75° NW 18:38:41 10° NE
ALOS 2.8 18:27:59 10° S 18:32:37 64° W 18:37:17 10° NNW
ERS-2 2.3 18:33:47 10° SSE 18:37:20 49° ENE 18:40:56 10° N
Cosmos 44 3.5 18:33:52 10° NNW 18:38:45 54° NE 18:43:50 10° SE
Cosmos 2333 Rocket 3.4 18:35:11 10° NW 18:40:34 45° WSW 18:45:54 10° S
Thor Agena Rocket 4.3 18:39:17 10° NE 18:43:42 28° E 18:48:02 10° SSE
Cosmos 1939 Rocket 4.4 18:44:48 17° ENE 18:45:07 17° ENE 18:47:49 10° NNE
Cosmos 2034 Rocket 4.4 18:40:13 10° N 18:46:11 40° ENE 18:52:06 10° SE
USA 238 DEB 4.2 18:40:05 10° SW 18:46:54 61° NW 18:53:50 10° NE
USA 238 4.2 18:40:10 10° SW 18:47:00 62° NW 18:53:56 10° NE
Cosmos 1674 Rocket 3.4 18:43:12 10° N 18:47:33 70° E 18:51:52 10° SSE
Cosmos 1633 3.1 18:44:39 10° SSE 18:47:54 34° E 18:51:09 10° NNE
Cosmos 2082 3.7 18:44:05 10° S 18:49:36 62° ESE 18:55:11 10° NNE
EO 1 Del DPAF 3.2 18:48:47 10° NNE 18:52:39 87° WNW 18:56:28 10° SSW
Envisat 3.4 18:50:40 10° SE 18:55:25 42° ENE 19:00:11 10° N
Cosmos 1908 Rocket 3.9 18:52:21 10° SSE 18:56:34 43° E 19:00:49 10° NNE
HJ-1C 3.4 18:54:29 10° SSE 18:57:50 56° ENE 19:01:12 10° N
CZ-4C R/B 4.0 18:52:59 10° NNW 18:58:25 25° NNE 19:02:08 17° ENE
ARGOS Delta rocket 4.3 18:58:40 10° NNE 19:03:17 37° E 19:07:38 10° SSE
SeaSat 1 2.4 18:58:51 10° SE 19:03:45 69° ENE 19:08:40 10° NNW
Resurs 1-3 4.4 19:04:01 27° E 19:05:03 30° ENE 19:08:53 10° N
Cosmos 1733 Rocket 3.4 19:00:48 10° SSW 19:05:05 66° W 19:09:24 10° N
Cosmos 921 Rocket 3.4 19:04:22 10° N 19:08:41 43° ENE 19:10:35 28° ESE
USA 215 3.3 19:06:09 17° ENE 19:11:13 59° SE 19:17:38 10° SW
Okean 3 3.5 19:07:03 10° N 19:11:14 80° W 19:15:24 10° S
Aureole 3 4.1 19:05:31 10° S 19:11:39 87° W 19:16:26 10° N
Resurs 01 Rocket 2.2 19:10:56 31° E 19:11:55 35° ENE 19:15:57 10° N
USA 186 3.2 19:16:27 25° NNE 19:16:27 25° NNE 19:18:16 10° N
Cosmos 1975 Rocket 3.2 19:16:52 10° N 19:21:10 48° ENE 19:22:26 36° ESE
SJ-6B 2.7 19:18:15 10° SSE 19:22:01 83° WSW 19:25:52 10° NNW
NOSS 3-2 (C) 3.7 19:17:24 10° SW 19:23:23 74° NW 19:30:08 10° NE
Cosmos 1513 Rocket 4.5 19:18:22 10° N 19:24:48 88° E 19:31:04 10° S
Tiangong 2 2.9 19:26:55 10° WSW 19:29:32 23° SSW 19:29:54 23° S
BREEZE-M R/B 3.7 19:29:56 10° WNW 19:32:27 62° SSW 19:34:28 33° SE
Okean 1 3.2 19:29:13 10° N 19:33:14 90° WSW 19:35:33 24° S
Cosmos 1943 4.1 19:32:21 10° N 19:37:14 30° NE 19:37:14 30° NE
Cosmos 1452 Rocket 4.4 19:32:51 10° NNW 19:37:56 50° WSW 19:42:59 10° S
Cosmos 1331 Rocket 4.5 19:35:28 10° N 19:40:19 41° NE 19:40:19 41° NE
Tsikada Rocket 4.0 19:34:23 10° S 19:40:41 64° E 19:47:03 10° NNE
Cosmos 44 Rocket 3.6 19:35:50 10° NW 19:40:49 67° WSW 19:43:34 27° SSE
Meteor 1-13 Rocket 4.2 19:37:35 10° N 19:43:05 57° ENE 19:44:06 49° ESE
Spot 2 Rocket 3.4 19:44:51 55° ESE 19:45:36 63° ENE 19:50:37 10° N
USA 267 3.2 19:43:26 41° E 19:45:52 69° NNE 19:52:22 10° NW
SJ-11-01 4.4 19:46:25 55° NE 19:46:25 55° NE 19:50:47 10° N
Sich 1 Rocket 3.7 19:42:07 10° SSW 19:46:37 75° W 19:51:07 10° N
Geosat 3.9 19:45:33 50° ENE 19:46:41 65° ESE 19:51:39 10° SSW
Cosmos 1048 Rocket 3.9 19:42:59 10° SSW 19:48:19 81° ESE 19:52:14 19° NNE
Cosmos 2227 Rocket 3.6 19:47:35 10° WSW 19:52:48 37° NW 19:58:03 10° NNE
SL-16 R/B 3.1 19:48:14 10° NW 19:53:39 48° WSW 19:59:02 10° S
Cosmos 1782 Rocket 3.5 19:49:31 10° S 19:53:58 82° W 19:58:25 10° N
CENTAUR R/B 2.4 19:49:12 10° SW 19:55:16 85° SE 19:59:08 28° NE
Iridium 4 Rocket 4.5 19:52:04 10° NNW 19:56:50 43° W 20:01:12 10° SSW
YAOGAN 6 4.5 20:00:36 24° NNW 20:00:36 24° NNW 20:02:07 10° NNW
Cosmos 158 Rocket 4.5 19:56:11 10° SW 20:00:57 54° WNW 20:05:46 10° NNE
Cosmos 2297 Rocket 3.7 20:02:02 10° WSW 20:07:09 34° NW 20:12:18 10° NNE
Cosmos 1603 3.5 20:06:18 10° NNW 20:12:00 86° ENE 20:12:05 85° E
Cosmos 1939 Rocket 4.2 20:20:41 40° NW 20:20:41 40° NW 20:23:43 10° NNW
ATLAS 3B R/B 4.4 20:17:45 10° W 20:23:32 26° NNW 20:28:33 12° NNE
ATLAS CENTAUR R/B 3.8 20:25:33 10° NNW 20:26:29 16° NNW 20:26:29 16° NNW
Meteor 2-4 Rocket 4.1 20:33:16 10° NNW 20:39:00 62° W 20:39:00 62° W
Cosmos 1634 Rocket 4.2 20:40:56 10° NNW 20:46:46 65° WNW 20:46:46 65° WNW
CZ-4C R/B 3.0 20:41:14 10° NW 20:47:21 62° N 20:47:21 62° N
Resurs 01 Rocket 3.6 20:48:30 25° W 20:48:30 25° W 20:52:08 10° NW
H-2A R/B 4.1 20:55:12 20° N 20:55:12 20° N 20:56:50 10° N
USA 215 3.7 20:53:30 53° N 20:54:13 55° NNW 21:00:33 10° WSW
USA 267 4.4 21:30:47 36° W 21:30:47 36° W 21:35:16 10° WNW
CENTAUR R/B 4.2 21:41:11 10° W 21:46:25 30° NW 21:46:25 30° NW
